Hourly Data Report for October 07, 2015

All times are specified in Local Standard Time (LST). Add 1 hour to adjust for Daylight Saving Time where and when it is observed.

ARVIAT A
NUNAVUT

61°05'38.000" N
94°04'18.000" W
10.40 m
2300427
71174
YEK

Download Data

Hourly Data (October 2015)
Hourly Data Report for October 7, 2015
Temp Definition
°C
Dew Point Temp Definition
°C
Rel Hum Definition
%
Wind Dir Definition
10's deg

Wind Spd Definition
km/h
Visibility Definition
km
Stn Press Definition
kPa
Hmdx Definition


Wind Chill Definition


Weather Definition


TIME
00:00 Legend Double Dagger -0.1 -0.4 98 27 8 16.1 101.23   -3 LegendNANA
01:00 Legend Double Dagger -0.7 -0.7 100 25 13 16.1 101.20   -5 LegendNANA
02:00 Legend Double Dagger -0.4 -0.5 99 26 18 16.1 101.16   -5 LegendNANA
03:00 Legend Double Dagger 0.1 -0.3 97 27 15 16.1 101.18     LegendNANA
04:00 Legend Double Dagger 0.6 0.3 98 27 9 16.1 101.18     LegendNANA
05:00 Legend Double Dagger 0.9 0.5 97 28 11 16.1 101.18     LegendNANA
06:00 Legend Double Dagger 1.0 0.7 98 30 13 14.5 101.22     LegendNANA
07:00 Legend Double Dagger 0.8 0.7 99 2 13 16.1 101.24     Rain
08:00 Legend Double Dagger 0.7 0.0 95 2 18 16.1 101.26     LegendNANA
09:00 Legend Double Dagger 0.4 -0.6 93 4 18 16.1 101.29     LegendNANA
10:00 Legend Double Dagger 0.8 -2.3 80 5 15 16.1 101.30     LegendNANA
11:00 Legend Double Dagger 1.3 -3.2 72 6 13 16.1 101.32     LegendNANA
12:00 Legend Double Dagger 1.9 -3.1 70 9 17 16.1 101.29     LegendNANA
13:00 Legend Double Dagger 1.8 -4.1 65 9 13 16.1 101.29     LegendNANA
14:00 Legend Double Dagger 1.8 -3.2 70 12 15 16.1 101.25     LegendNANA
15:00 Legend Double Dagger 1.8 -2.3 74 12 18 16.1 101.19     Rain
16:00 Legend Double Dagger 0.9 -1.3 85 12 22 11.3 101.14     Snow
17:00 Legend Double Dagger 0.6 0.2 97 13 24 4.8 101.06     Snow
18:00 Legend Double Dagger 0.6 0.6 100 13 32 3.6 100.96     Snow
19:00 Legend Double Dagger 0.9 0.9 100 14 34 16.1 100.85     Rain
20:00 Legend Double Dagger 2.2 2.1 99 17 18 16.1 100.74     Rain
21:00 Legend Double Dagger 2.7 1.9 94 22 24 16.1 100.66     Rain
22:00 Legend Double Dagger 1.9 1.6 98 21 15 16.1 100.56     Rain
23:00 Legend Double Dagger 1.8 1.7 99 21 17 16.1 100.44     Rain

Notes on Data Quality.

Legend

  • E = Estimated
  • M = Missing
  • NA = Not Available
  • ‡ = Partner data that is not subject to review by the National Climate Archives
Date modified: